Weather History for Fayetteville, AR

Change the Weather History Date:

Monday, December 17, 2012

  Actual Average Record
Temperature  
Mean Temperature 39 °F 37 °F  
Max Temperature 48 °F 47 °F 70 °F (1976)
Min Temperature 29 °F 26 °F 4 °F (1979)
Degree Days  
Heating Degree Days 26 28  
Month to date heating degree days 296 447  
Since 1 July heating degree days 1109 1276  
Moisture  
Dew Point 35 °F    
Average Humidity 80    
Maximum Humidity 100    
Minimum Humidity 60    
Precipitation  
Precipitation 0.00 in 0.09 in 0.39 in (1959)
Month to date precipitation 1.28 1.87  
Year to date precipitation 29.19 47.14  
Sea Level Pressure  
Sea Level Pressure 29.78 in    
Wind  
Wind Speed 4 mph (WNW)    
Max Wind Speed 14 mph    
Max Gust Speed 20 mph    
Visibility 6 miles    
Events Fog    
T = Trace of Precipitation, MM = Missing Value Source: NWS Daily Summary

Daily Weather History Graph

Daily Weather History Graph

Search for Another Location

Airport:

Trip Planner

Search our weather history database for the weather conditions in past years. The results will help you decide how hot, cold, wet, or windy it might be!

Date:

Astronomy

Dec. 17, 2012 Rise Set
Actual Time 7:21 AM CST 5:04 PM CST
Civil Twilight 6:52 AM CST 5:33 PM CST
Nautical Twilight 6:20 AM CST 6:05 PM CST
Astronomical Twilight 5:49 AM CST 6:36 PM CST
Moon 10:38 AM CST 10:18 PM CST
Length of Visible Light 10h 40m
Length of Day
9h 43m
Waxing Crescent, 25% of the Moon is Illuminated
Dec 17
Waxing Crescent
Dec 19
First Quarter
Dec 28
Full
Jan 4
Last Quarter
Jan 11
New

Hourly Weather History & Observations

Time (CST) Temp. Windchill Dew Point Humidity Pressure Visibility Wind Dir Wind Speed Gust Speed Precip Events Conditions
12:53 AM 41.0 °F - 36.0 °F 82% 29.70 in 10.0 mi Calm Calm - N/A   Clear
1:53 AM 39.0 °F - 36.0 °F 89% 29.70 in 10.0 mi Calm Calm - N/A   Clear
2:53 AM 36.0 °F - 33.1 °F 89% 29.70 in 10.0 mi Calm Calm - N/A   Clear
3:53 AM 33.1 °F - 30.9 °F 92% 29.70 in 10.0 mi Calm Calm - N/A   Clear
4:23 AM 37.4 °F 29.8 °F 35.6 °F 93% 29.71 in 5.0 mi NNW 11.5 mph - N/A   Scattered Clouds
4:27 AM 37.4 °F 30.3 °F 35.6 °F 93% 29.71 in 1.0 mi NNW 10.4 mph - N/A   Mostly Cloudy
4:32 AM 37.4 °F 34.9 °F 37.4 °F 100% 29.71 in 0.5 mi Variable 3.5 mph - N/A Fog Fog
4:53 AM 37.9 °F 31.5 °F 37.9 °F 100% 29.72 in 0.2 mi NNW 9.2 mph - N/A Fog Fog
5:51 AM 39.2 °F 33.0 °F 39.2 °F 100% 29.73 in 1.2 mi NNW 9.2 mph - N/A   Overcast
5:53 AM 39.0 °F 32.8 °F 39.0 °F 100% 29.73 in 1.5 mi NW 9.2 mph - N/A   Overcast
6:53 AM 37.9 °F 35.5 °F 37.9 °F 100% 29.76 in 3.0 mi NW 3.5 mph - N/A   Overcast
7:53 AM 39.0 °F 33.4 °F 37.0 °F 93% 29.78 in 4.0 mi NW 8.1 mph - N/A   Overcast
8:53 AM 39.0 °F 32.8 °F 37.0 °F 93% 29.79 in 5.0 mi NNW 9.2 mph - N/A   Overcast
9:53 AM 39.9 °F 34.5 °F 37.0 °F 89% 29.81 in 7.0 mi NW 8.1 mph - N/A   Overcast
10:39 AM 41.0 °F 37.1 °F 37.4 °F 87% 29.81 in 6.0 mi WNW 5.8 mph - N/A   Overcast
10:53 AM 41.0 °F - 37.0 °F 86% 29.82 in 5.0 mi Calm Calm - N/A   Overcast
11:53 AM 42.1 °F 37.7 °F 37.0 °F 82% 29.82 in 7.0 mi WSW 6.9 mph - N/A   Overcast
12:53 PM 44.1 °F 40.1 °F 36.0 °F 73% 29.81 in 9.0 mi WNW 6.9 mph - N/A   Mostly Cloudy
1:35 PM 46.4 °F 42.9 °F 37.4 °F 71% 29.80 in 10.0 mi Variable 6.9 mph - N/A   Scattered Clouds
1:53 PM 46.0 °F 41.9 °F 36.0 °F 68% 29.79 in 10.0 mi WSW 8.1 mph - N/A   Partly Cloudy
2:53 PM 48.0 °F - 36.0 °F 63% 29.79 in 10.0 mi NW 10.4 mph - N/A   Clear
3:53 PM 46.0 °F - 34.0 °F 63% 29.79 in 10.0 mi Calm Calm - N/A   Clear
6:53 PM 37.0 °F 31.6 °F 33.1 °F 86% 29.83 in 8.0 mi SSW 6.9 mph - N/A   Clear
7:53 PM 35.1 °F 30.1 °F 32.0 °F 89% 29.85 in 8.0 mi SSW 5.8 mph - N/A   Clear
8:53 PM 30.9 °F 26.2 °F 28.9 °F 92% 29.86 in 7.0 mi South 4.6 mph - N/A   Clear
9:53 PM 30.9 °F 25.2 °F 28.9 °F 92% 29.85 in 7.0 mi South 5.8 mph - N/A   Clear
10:53 PM 30.0 °F 26.5 °F 28.0 °F 92% 29.85 in 7.0 mi South 3.5 mph - N/A   Clear
11:53 PM 28.9 °F - 27.0 °F 92% 29.83 in 7.0 mi Calm Calm - N/A   Clear